Hourly Data Report for September 28, 2017

All times are specified in Local Standard Time (LST). Add 1 hour to adjust for Daylight Saving Time where and when it is observed.

PORT ALBERNI (AUT)
BRITISH COLUMBIA

49°18'59.700" N
124°55'36.600" W
76.20 m
1036B06
71475
WQC

Related Data

No related data is available for this station

Download Data

Hourly Data (September 2017)
Hourly Data Report for September 28, 2017
Temp Definition
°C
Dew Point Temp Definition
°C
Rel Hum Definition
%
Wind Dir Definition
10's deg

Wind Spd Definition
km/h
Visibility Definition
km
Stn Press Definition
kPa
Hmdx Definition


Wind Chill Definition


Weather Definition


TIME
00:00 10.7 10.3 98 32 2   100.75     LegendNANA
01:00 9.3 8.9 97 0 1   100.71     LegendNANA
02:00 10.1 9.8 99 31 3   100.68     LegendNANA
03:00 8.3 7.9 97 29 2   100.66     LegendNANA
04:00 7.9 7.6 98 32 2   100.65     LegendNANA
05:00 9.3 9.1 99 34 2   100.62     LegendNANA
06:00 10.0 9.9 99 4 2   100.62     LegendNANA
07:00 10.8 10.7 99 31 4   100.60     LegendNANA
08:00 11.7 11.6 99 30 2   100.58     LegendNANA
09:00 13.1 13.0 99 30 2   100.54     LegendNANA
10:00 15.7 15.0 96 20 3   100.50     LegendNANA
11:00 18.9 12.7 67 17 2   100.42     LegendNANA
12:00 22.3 12.8 55 6 3   100.34 25   LegendNANA
13:00 24.4 10.9 43 25 3   100.26 26   LegendNANA
14:00 27.2 10.3 35 29 2   100.18 29   LegendNANA
15:00 28.6 8.2 28 16 2   100.14 29   LegendNANA
16:00 27.3 7.4 28 22 5   100.10 27   LegendNANA
17:00 25.0 7.9 34 25 3   100.09 25   LegendNANA
18:00 20.6 9.7 50 5 3   100.11     LegendNANA
19:00 15.9 11.2 74 12 3   100.11     LegendNANA
20:00 14.7 11.0 79 33 2   100.10     LegendNANA
21:00 14.4 11.3 82 32 2   100.08     LegendNANA
22:00 15.0 12.1 83 31 1   100.13     LegendNANA
23:00 15.3 11.6 79 13 7   100.16     LegendNANA

Notes on Data Quality.

Legend

  • E = Estimated
  • M = Missing
  • NA = Not Available
  • ‡ = Partner data that is not subject to review by the National Climate Archives
Date modified: